TimeCET,TemperatureF,Dew PointF,Humidity,Sea Level PressureIn,VisibilityMPH,Wind Direction,Wind SpeedMPH,Gust SpeedMPH,PrecipitationIn,Events,Conditions,WindDirDegrees,DateUTC
12:55 AM,30.2,26.6,86,30.01,6.2,NNE,17.3,-,N/A,,Scattered Clouds,30,2013-01-07 23:55:00
1:00 AM,29,27,89,,12,NNE,17.3,,,,Partly Cloudy,30,2013-01-08 00:00:00
1:55 AM,28.4,24.8,86,30.01,-9999.0,NNE,17.3,-,N/A,,Clear,20,2013-01-08 00:55:00
2:55 AM,28.4,23.0,80,30.01,-9999.0,NNE,18.4,-,N/A,,Clear,30,2013-01-08 01:55:00
3:55 AM,28.4,23.0,80,30.04,-9999.0,NNE,20.7,-,N/A,,Clear,20,2013-01-08 02:55:00
4:00 AM,28,23,72,,12,NNE,20.7,,,,,20,2013-01-08 03:00:00
4:55 AM,28.4,23.0,80,30.04,-9999.0,NNE,23.0,-,N/A,,Clear,20,2013-01-08 03:55:00
5:55 AM,26.6,24.8,93,30.01,-9999.0,NNE,9.2,-,N/A,,Clear,20,2013-01-08 04:55:00
6:55 AM,26.6,21.2,80,30.01,-9999.0,NNE,9.2,-,N/A,,Clear,20,2013-01-08 05:55:00
7:55 AM,26.6,21.2,80,30.04,-9999.0,NNE,10.4,-,N/A,,Clear,30,2013-01-08 06:55:00
8:55 AM,28.4,15.8,59,30.04,-9999.0,NNE,10.4,-,N/A,,Clear,30,2013-01-08 07:55:00
9:55 AM,30.2,17.6,60,30.06,-9999.0,NNE,11.5,-,N/A,,Clear,30,2013-01-08 08:55:00
10:00 AM,30,17,45,,19,NNE,11.5,,,,,30,2013-01-08 09:00:00
10:55 AM,30.2,21.2,69,30.06,-9999.0,NNE,6.9,-,N/A,,Clear,30,2013-01-08 09:55:00
11:55 AM,32.0,23.0,69,30.09,-9999.0,NNE,5.8,-,N/A,,Clear,20,2013-01-08 10:55:00
12:55 PM,32.0,24.8,75,30.09,-9999.0,North,4.6,-,N/A,,Clear,10,2013-01-08 11:55:00
1:00 PM,33,25,62,,19,North,4.6,,,,,10,2013-01-08 12:00:00
1:55 PM,33.8,26.6,75,30.06,6.2,North,6.9,-,N/A,,Scattered Clouds,350,2013-01-08 12:55:00
2:55 PM,35.6,26.6,70,30.06,-9999.0,North,4.6,-,N/A,,Clear,360,2013-01-08 13:55:00
3:55 PM,33.8,28.4,81,30.06,-9999.0,North,4.6,-,N/A,,Clear,350,2013-01-08 14:55:00
4:00 PM,33,28,77,,12,North,4.6,,,,,350,2013-01-08 15:00:00
4:55 PM,32.0,32.0,100,30.06,6.2,North,6.9,-,N/A,,Partly Cloudy,350,2013-01-08 15:55:00
5:55 PM,30.2,30.2,100,30.06,5.0,North,6.9,-,N/A,,Scattered Clouds,350,2013-01-08 16:55:00
6:55 PM,32.0,32.0,100,30.06,0.0,North,6.9,-,N/A,Fog,Fog,350,2013-01-08 17:55:00
7:00 PM,31,31,100,,0,North,6.9,,,Fog,Heavy Fog,350,2013-01-08 18:00:00
7:55 PM,32.0,32.0,100,30.06,0.0,North,6.9,-,N/A,Fog,Fog,10,2013-01-08 18:55:00
8:55 PM,32.0,32.0,100,30.06,3.1,NNE,4.6,-,N/A,,Mostly Cloudy,30,2013-01-08 19:55:00
9:55 PM,32.0,32.0,100,30.06,6.2,NE,4.6,-,N/A,,Mostly Cloudy,40,2013-01-08 20:55:00
10:00 PM,32,32,100,,6,NE,4.6,,,,Partly Cloudy,40,2013-01-08 21:00:00
10:55 PM,32.0,32.0,100,30.06,6.2,NE,4.6,-,N/A,,Scattered Clouds,40,2013-01-08 21:55:00
11:55 PM,32.0,32.0,100,30.06,0.0,NNE,4.6,-,N/A,Fog,Fog,30,2013-01-08 22:55:00